Location: *
(43.9900°N, 3.4811°E)
Time: 14:41:40
(UTC+00:00)

Cosmos 2278 - Pass Details

Date: 25 August 2019
Orbit: 840 x 852 km, 71.1° (Epoch: 21 September)

Event Time Altitude Azimuth Distance (km) Brightness Sun altitude
Rises 21:16:58 0° 329° (NNW) 3,408 8.2 -25.5°
Reaches altitude 10° 21:19:31 10° 323° (NW) 2,471 7.2 -25.8°
Maximum altitude 21:24:50 43° 253° (WSW) 1,173 4.5 -26.4°
Enters shadow 21:26:08 37° 220° (SW) 1,289 4.5 -26.6°
